Location: Adaghas
(31.2259°N, 9.0496°W)
Time: 03:27:54
(UTC+00:00)

GOES 2 Rocket - Pass Details

Date: 18 September 2020
Orbit: 569 x 1674 km, 28.4° (Epoch: 23 October)

Event Time Altitude Azimuth Distance (km) Brightness Sun altitude
Rises 19:13:09 0° 233° (SW) 2,781 7.2 -8.4°
Reaches altitude 10° 19:15:39 10° 221° (SW) 1,854 6.0 -9.0°
Maximum altitude 19:19:15 28° 161° (SSE) 1,074 4.1 -9.7°
Enters shadow 19:22:16 14° 106° (ESE) 1,693 4.6 -10.4°
